SKYSAT-C9 (42989 NORAD) Tracking and Keplerian Element Data

This shows tracking and keplerian element data for the satellite.

Feedback or suggestion? Click here.




ElementValue
Catalog42989
NameSKYSAT-C9
Epoch Orbit6165
Epoch Day345.54762909
Epoch Year2018
RAAN97.0816
Inclination97.4184
Eccentricity0.0001427
Argument of Perigee97.1148
Mean Anonmoly321.8526
Mean Motion15.21611455
Decay Rate6.92E-06
L11 42989U 17068C 18345.54762909 .00000692 00000-0 33686-4 0 9994
L22 42989 97.4184 97.0816 0001427 97.1148 321.8526 15.21611455 61658

Live tracking and technical data element details for SKYSAT-C9 (NORAD 42989). SKYSAT-C9 can be tracked NOW for your location showing map with azimuth and elevation plus other details from your city location.

Track the satellite on the map from your city or location and see movement details for azimuth, elevation, latitude, longitude, range, height, and movement on the map or in text.







IsCatalogInMostPopularTable: catalog: 42989, numindb: 134
Update: records affected: 1



GetName: 42989 SKYSAT-C9

Hit Count: updated at: Thu, 13 Dec 2018 03:27:07 GMT